Tracking 19564 objects as of 19-Mar-2019
HD Live streaming from Space Station
objects crossing your sky now

NAXING 1

Track NAXING 1 now!
10-day predictions
NAXING 1 is classified as:


NORAD ID: 28221
Int'l Code: 2004-012B
Perigee: 585.9 km
Apogee: 599.2 km
Inclination: 97.8 °
Period: 96.4 minutes
Semi major axis: 6963 km
RCS: 0.3151 m2 (medium)
Launch date: April 18, 2004
Source: People's Republic of China (PRC)
Launch site: Xichang Space Center, China (XSC)

China's first nano-satellite; high-tech demonstration experiments
aabbcc
Your satellite tracking list
Your tracking list is empty




NASA's NSSDC Master Catalog

Two Line Element Set (TLE):
1 28221U 04012B   19077.85026723  .00000255  00000-0  29252-4 0  9995
2 28221  97.7876  24.9536 0009577 217.6681 142.3870 14.94020649811047
Source of the keplerian elements: AFSPC